[[{"header":{"parameterUnit":"m.s-1","parameterCategory":1,"la1":30.2991,"la2":30.254,"lo1":-89.0895,"lo2":-89.0444,"dy":0.0017,"dx":0.0017,"nx":28,"ny":28,"refTime":"2023-11-13T03:00:00:Z","depth":0,"parameterNumber":2,"parameterNumberName":"U-component_of_WINDS"},"data":[0,0,0,0,0,0,0,0,0,0,0,0,0,0,0,0,0,0,0,0,0,0,0,0,0,0,0,0,0,0,0,0,0,0,0,0,0,0,0,0,0,0,0,0,0,0,0,0,0,0,0,0,0,0,0,0,0,0,-6.192,-6.1921,0,-6.2006,-6.2007,-6.2008,-6.1865,-6.186,-6.1855,-6.185,-6.1939,-6.1945,-6.1952,0,0,0,0,0,0,0,0,0,0,0,0,0,-6.1632,-6.1638,-6.192,-6.1921,-6.1922,-6.2006,-6.2007,-6.2008,-6.1865,-6.1859,-6.1854,-6.1848,-6.1936,-6.1944,-6.1953,0,0,0,0,0,0,0,0,0,0,0,0,0,-6.1742,-6.164,-6.192,-6.1861,-6.1857,-6.2005,-6.2007,-6.2008,-6.1867,-6.1859,-6.1852,-6.1845,-6.1934,-6.1944,-6.1954,-6.2164,0,0,-6.1985,-6.199,0,0,0,0,0,0,0,0,-6.1736,-6.1752,-6.1869,-6.1865,-6.1861,-6.1917,-6.1938,-6.2061,-6.1869,-6.1863,-6.185,-6.1842,-6.1937,-6.1947,-6.1979,-6.2168,-6.2172,-6.1986,-6.1993,-6.1997,-6.2,0,0,0,0,0,0,0,-6.1728,-6.1748,-6.1954,-6.187,-6.1866,-6.183,-6.1838,-6.196,-6.194,-6.1863,-6.1853,-6.1865,-6.1934,-6.1969,-6.198,-6.2173,-6.1986,-6.1995,-6.2002,-6.2006,-6.2541,-6.2548,0,0,0,0,0,0,-6.1728,-6.1743,-6.1951,-6.1956,-6.1779,-6.1841,-6.185,-6.1906,-6.1938,-6.1936,-6.1871,-6.1858,-6.1955,-6.1968,-6.1983,-6.2232,-6.1997,-6.2007,-6.2013,-6.2533,-6.2542,-6.2551,0,0,0,0,0,0,-6.1722,-6.1748,-6.1948,-6.1847,-6.187,-6.1854,-6.1919,-6.1912,-6.1947,-6.1944,-6.194,-6.1911,-6.195,-6.1968,-6.212,-6.2233,-6.2011,-6.2021,-6.2523,-6.2536,-6.2547,-6.2733,0,0,0,0,0,0,-6.1715,-6.1747,-6.1827,-6.185,-6.1876,-6.2085,-6.1926,-6.1919,-6.1966,-6.1949,-6.1981,-6.1979,-6.1946,-6.2106,-6.2131,-6.2244,-6.2029,-6.2513,-6.2529,-6.2543,-6.2717,-6.275,-6.2778,0,0,0,0,0,-6.1705,-6.1876,-6.1831,-6.1857,-6.1975,-6.2091,-6.2106,-6.2064,-6.1975,-6.2056,-6.2054,-6.1978,-6.2217,-6.2122,-6.2149,-6.2267,-6.2506,-6.2524,-6.2542,-6.2703,-6.2743,-6.2778,0,0,0,0,0,0,-6.1866,-6.1877,-6.1829,-6.2012,-6.2052,-6.2067,-6.2167,-6.2108,-6.2174,-6.2156,-6.21,-6.2109,-6.2273,-6.2284,-6.218,-6.2473,-6.2346,-6.2371,-6.246,-6.2498,-6.2528,-6.2523,-6.2037,0,0,0,0,0,-6.1923,-6.2017,-6.2021,-6.2182,-6.2205,-6.2183,-6.2232,-6.2196,-6.2235,-6.2251,-6.226,-6.2301,-6.2385,-6.2442,-6.2519,-6.2717,-6.2723,-6.2811,-6.2842,-6.2867,-6.289,-6.2997,-6.3037,-6.261,-6.261,-6.261,0,0,-6.2041,-6.2059,-6.2122,-6.2215,-6.2242,-6.234,-6.2198,-6.2308,-6.2381,-6.2268,-6.2413,-6.2421,-6.2463,-6.264,-6.2718,-6.2655,-6.3008,-6.289,-6.291,-6.2919,-6.3019,-6.306,-6.3096,-6.2622,-6.262,-6.2618,0,0,-6.2308,-6.233,-6.2468,-6.2497,-6.254,-6.2524,-6.2557,-6.2582,-6.2583,-6.2727,-6.2645,-6.273,-6.2876,-6.291,-6.2946,-6.3226,-6.316,-6.3252,-6.3414,-6.3519,-6.3553,-6.3582,-6.3684,-6.3721,-6.3274,-6.3274,-6.3275,0,-6.245,-6.2595,-6.2546,-6.2662,-6.2706,-6.2608,-6.2747,-6.2778,-6.2844,-6.2877,-6.2804,-6.2986,-6.3007,-6.3191,-6.3259,-6.3291,-6.3328,-6.3249,-6.3552,-6.3581,-6.3608,-6.3704,-6.3742,-6.3285,-6.3284,-6.3283,-6.3282,0,-6.2769,-6.2871,-6.2977,-6.3043,-6.3098,-6.3226,-6.3196,-6.3258,-6.3217,-6.3209,-6.3358,-6.3379,-6.346,-6.35,-6.3461,-6.368,-6.3639,-6.356,-6.3432,-6.366,-6.375,-6.3786,-6.3301,-6.3297,-6.3294,-6.3291,0,0,-6.3141,-6.3178,-6.3218,-6.3247,-6.3287,-6.3365,-6.3487,-6.3566,-6.3621,-6.3669,-6.3772,-6.3897,-6.3825,-6.3866,-6.383,-6.3922,-6.4144,-6.3831,-6.3831,-6.3891,-6.4388,-6.4449,-6.4493,-6.41,-6.4106,-6.4112,-6.4385,0,-6.3408,-6.362,-6.3579,-6.3787,-6.3881,-6.3789,-6.3896,-6.3932,-6.3928,-6.4007,-6.4001,-6.4093,-6.3989,-6.4013,-6.41,-6.4099,-6.4244,-6.4078,-6.4196,-6.4201,-6.4191,-6.4539,-6.4604,-6.4861,-6.442,-6.4426,-6.443,0,-6.3748,-6.381,-6.4027,-6.4052,-6.409,-6.4187,-6.4257,-6.4333,-6.4372,-6.4362,-6.4409,-6.4356,-6.4478,-6.4347,-6.4516,-6.4404,-6.4449,-6.4456,-6.4465,-6.4476,-6.4331,-6.4562,-6.4942,-6.4981,-6.4484,-6.448,-6.4476,0,-6.4001,-6.4137,-6.4285,-6.4313,-6.4346,-6.4416,-6.4433,-6.4465,-6.4515,-6.4575,-6.4607,-6.4681,-6.4722,-6.4781,-6.4749,-6.4656,-6.4924,-6.479,-6.4921,-6.4922,-6.4983,-6.498,-6.5378,-6.5009,-6.5008,-6.5008,-6.5007,0,-6.4304,-6.4441,-6.4399,-6.4491,-6.4642,-6.4593,-6.4744,-6.4749,-6.4779,-6.487,-6.4793,-6.4881,-6.4832,-6.4916,-6.4891,-6.5036,-6.5054,-6.505,-6.5043,-6.5059,-6.506,-6.5089,-6.5072,-6.5018,-6.5016,-6.5014,-6.5012,0,-6.4613,-6.459,-6.4746,-6.4764,-6.4771,-6.4882,-6.4897,-6.4983,-6.4972,-6.5089,-6.5113,-6.5098,-6.5192,-6.5165,-6.5267,-6.5251,-6.5434,-6.5403,-6.5422,-6.5415,-6.5548,-6.5537,-6.5981,-6.6038,-6.563,-6.5634,-6.5637,0,-6.4809,-6.4913,-6.4942,-6.4998,-6.5021,-6.5111,-6.5162,-6.5117,-6.5174,-6.5226,-6.5306,-6.5393,-6.5461,-6.5617,-6.5615,-6.5693,-6.5664,-6.5814,-6.5675,-6.5688,-6.5669,-6.5664,-6.5675,-6.5842,-6.5847,-6.5851,-6.5854,0,-6.5162,-6.5145,-6.5221,-6.5295,-6.5358,-6.5414,-6.5462,-6.5512,-6.5471,-6.5538,-6.5634,-6.5687,-6.5791,-6.588,-6.5951,-6.5968,-6.5906,-6.5897,-6.5932,-6.5951,-6.5959,-6.5959,-6.55,-6.5888,-6.5885,-6.5882,-6.588,-6.5879,-6.5421,-6.551,-6.5544,-6.5632,-6.5664,-6.5711,-6.5793,-6.5793,-6.5872,-6.5954,-6.5922,-6.6033,-6.6069,-6.6159,-6.6185,-6.6271,-6.6214,-6.6264,-6.6277,-6.6291,-6.6309,-6.5943,-6.6284,-6.6282,-6.6282,-6.6281,-6.628,0,-6.5771,-6.5789,-6.587,-6.5941,-6.6011,-6.5944,-6.5994,-6.6057,-6.6156,-6.6195,-6.6263,-6.6374,-6.646,-6.6464,-6.6545,-6.6613,-6.6586,-6.6636,-6.6632,-6.6637,-6.6354,-6.6317,-6.6656,-6.6656,-6.6656,-6.6656,-6.6656,-6.6656,-6.5962,-6.6108,-6.6096,-6.6258,-6.6274,-6.6382,-6.6417,-6.646,-6.6491,-6.6618,-6.6689,-6.6691,-6.6717,-6.6799,-6.6875,-6.6873,-6.6908,-6.6969,-6.6958,-6.6694,-6.6657,-6.6621,-6.6586,-6.6976,-6.6977,-6.7233,-6.7236,-6.7238]},{"header":{"parameterUnit":"m.s-1","parameterCategory":1,"la1":30.2991,"la2":30.254,"lo1":-89.0895,"lo2":-89.0444,"dy":0.0017,"dx":0.0017,"nx":28,"ny":28,"refTime":"2023-11-13T03:00:00:Z","depth":0,"parameterNumber":3,"parameterNumberName":"V-component_of_WINDS"},"data":[0,0,0,0,0,0,0,0,0,0,0,0,0,0,0,0,0,0,0,0,0,0,0,0,0,0,0,0,0,0,0,0,0,0,0,0,0,0,0,0,0,0,0,0,0,0,0,0,0,0,0,0,0,0,0,0,0,0,-4.1984,-4.1984,0,-4.1997,-4.1998,-4.1998,-4.1955,-4.1953,-4.1952,-4.1951,-4.1963,-4.1965,-4.1966,0,0,0,0,0,0,0,0,0,0,0,0,0,-4.1919,-4.192,-4.1984,-4.1984,-4.1984,-4.1997,-4.1998,-4.1998,-4.1955,-4.1953,-4.1952,-4.195,-4.1963,-4.1965,-4.1966,0,0,0,0,0,0,0,0,0,0,0,0,0,-4.1941,-4.192,-4.1984,-4.1965,-4.1963,-4.1997,-4.1998,-4.1998,-4.1955,-4.1953,-4.1951,-4.195,-4.1962,-4.1964,-4.1967,-4.202,0,0,-4.1974,-4.1975,0,0,0,0,0,0,0,0,-4.194,-4.1943,-4.1967,-4.1966,-4.1964,-4.1972,-4.1979,-4.2005,-4.1956,-4.1958,-4.1951,-4.1949,-4.1968,-4.197,-4.1976,-4.2021,-4.2021,-4.1974,-4.1975,-4.1976,-4.1977,0,0,0,0,0,0,0,-4.1938,-4.1943,-4.1989,-4.1968,-4.1966,-4.1954,-4.1955,-4.1984,-4.1974,-4.1958,-4.1955,-4.1957,-4.1967,-4.1974,-4.1976,-4.2021,-4.1974,-4.1976,-4.1977,-4.1978,-4.2108,-4.211,0,0,0,0,0,0,-4.194,-4.1942,-4.1989,-4.199,-4.1947,-4.1957,-4.1958,-4.1972,-4.1973,-4.1972,-4.1959,-4.1955,-4.1971,-4.1974,-4.1977,-4.2037,-4.1976,-4.1978,-4.198,-4.2106,-4.2108,-4.211,0,0,0,0,0,0,-4.1938,-4.1944,-4.1988,-4.1965,-4.1969,-4.196,-4.1976,-4.1973,-4.198,-4.1974,-4.1972,-4.1968,-4.197,-4.1973,-4.2009,-4.2037,-4.198,-4.1982,-4.2103,-4.2107,-4.2109,-4.2161,0,0,0,0,0,0,-4.1937,-4.1944,-4.1965,-4.1966,-4.1971,-4.2022,-4.1978,-4.1975,-4.1985,-4.198,-4.1982,-4.1981,-4.1968,-4.2006,-4.2011,-4.2039,-4.1983,-4.2101,-4.2105,-4.2108,-4.2157,-4.2165,-4.2173,0,0,0,0,0,-4.1934,-4.1979,-4.1966,-4.1972,-4.1997,-4.2023,-4.2026,-4.2011,-4.1987,-4.2007,-4.2003,-4.1981,-4.2034,-4.201,-4.2016,-4.2045,-4.2099,-4.2104,-4.2108,-4.2153,-4.2164,-4.2173,0,0,0,0,0,0,-4.1982,-4.1979,-4.1965,-4.2011,-4.2018,-4.2016,-4.2041,-4.2023,-4.2037,-4.2032,-4.2012,-4.2013,-4.2052,-4.2052,-4.2026,-4.2096,-4.2062,-4.2068,-4.2094,-4.2104,-4.2112,-4.2111,-4.1985,0,0,0,0,0,-4.1998,-4.202,-4.2016,-4.2057,-4.2061,-4.2051,-4.2062,-4.2049,-4.2056,-4.2058,-4.2056,-4.2063,-4.208,-4.2092,-4.2108,-4.2157,-4.2156,-4.218,-4.2188,-4.2194,-4.2199,-4.2223,-4.2233,-4.2126,-4.2126,-4.2126,0,0,-4.2031,-4.2032,-4.2047,-4.2067,-4.207,-4.2093,-4.2053,-4.2079,-4.2095,-4.2062,-4.2095,-4.2094,-4.21,-4.2142,-4.216,-4.2143,-4.2229,-4.22,-4.2206,-4.2207,-4.2229,-4.2239,-4.2248,-4.2129,-4.2128,-4.2128,0,0,-4.2102,-4.2106,-4.2139,-4.2144,-4.215,-4.2142,-4.2151,-4.2152,-4.2149,-4.2183,-4.2158,-4.2176,-4.2208,-4.2212,-4.2219,-4.229,-4.227,-4.2296,-4.2338,-4.2361,-4.237,-4.2377,-4.2401,-4.241,-4.2301,-4.2301,-4.2301,0,-4.2142,-4.2175,-4.2159,-4.2186,-4.2194,-4.2165,-4.2198,-4.2204,-4.2215,-4.2221,-4.2202,-4.224,-4.2242,-4.2283,-4.23,-4.2307,-4.2315,-4.2295,-4.237,-4.2377,-4.2384,-4.2406,-4.2416,-4.2304,-4.2304,-4.2304,-4.2303,0,-4.2223,-4.2246,-4.2273,-4.2284,-4.2296,-4.2326,-4.2313,-4.2327,-4.2313,-4.2308,-4.2341,-4.2342,-4.2357,-4.2366,-4.2354,-4.2406,-4.2395,-4.2373,-4.2339,-4.2397,-4.2418,-4.2427,-4.2309,-4.2308,-4.2307,-4.2306,0,0,-4.2325,-4.2326,-4.2335,-4.2339,-4.2343,-4.2361,-4.2389,-4.2404,-4.2415,-4.2424,-4.2446,-4.2473,-4.2452,-4.246,-4.2447,-4.2468,-4.2522,-4.2443,-4.2443,-4.2457,-4.2578,-4.2593,-4.2604,-4.2509,-4.2511,-4.2512,-4.2577,0,-4.2393,-4.2442,-4.2427,-4.2475,-4.2496,-4.2468,-4.2492,-4.2497,-4.2492,-4.2508,-4.2502,-4.2521,-4.2494,-4.2498,-4.2517,-4.2512,-4.2546,-4.2507,-4.2528,-4.2529,-4.2527,-4.2615,-4.2631,-4.2692,-4.2585,-4.2587,-4.2588,0,-4.248,-4.2491,-4.2542,-4.2541,-4.2549,-4.2571,-4.2582,-4.2599,-4.2603,-4.2598,-4.2605,-4.2588,-4.2615,-4.2581,-4.2616,-4.259,-4.2598,-4.2596,-4.2598,-4.2599,-4.2561,-4.2616,-4.2712,-4.272,-4.2601,-4.2599,-4.2599,0,-4.2547,-4.2575,-4.2608,-4.2613,-4.2613,-4.2629,-4.263,-4.2632,-4.2641,-4.2651,-4.2657,-4.267,-4.2677,-4.2687,-4.2673,-4.265,-4.271,-4.2676,-4.2706,-4.2706,-4.2719,-4.2718,-4.2815,-4.2726,-4.2726,-4.2726,-4.2726,0,-4.2625,-4.2656,-4.2638,-4.2658,-4.2692,-4.2675,-4.2709,-4.2706,-4.2708,-4.2727,-4.2704,-4.2722,-4.2703,-4.2719,-4.2709,-4.2739,-4.2742,-4.2738,-4.2735,-4.274,-4.274,-4.2744,-4.2738,-4.2728,-4.2728,-4.2727,-4.2727,0,-4.2705,-4.2694,-4.2728,-4.2725,-4.2725,-4.275,-4.2747,-4.2765,-4.2759,-4.2782,-4.2787,-4.2776,-4.2794,-4.2781,-4.2799,-4.2792,-4.2831,-4.2822,-4.2829,-4.2827,-4.2857,-4.2853,-4.2959,-4.2971,-4.2876,-4.2876,-4.2877,0,-4.2755,-4.2778,-4.2777,-4.2788,-4.279,-4.2808,-4.2817,-4.28,-4.2811,-4.2816,-4.2834,-4.2849,-4.286,-4.2889,-4.2883,-4.2896,-4.2886,-4.2922,-4.2888,-4.2892,-4.2885,-4.2883,-4.2885,-4.2929,-4.293,-4.2931,-4.2932,0,-4.2843,-4.2836,-4.285,-4.2862,-4.2874,-4.2882,-4.2889,-4.2899,-4.2882,-4.2895,-4.2912,-4.2921,-4.2938,-4.2953,-4.2964,-4.2964,-4.2945,-4.2943,-4.295,-4.2954,-4.2957,-4.2954,-4.2847,-4.294,-4.2939,-4.2939,-4.2938,-4.2938,-4.2908,-4.2927,-4.2929,-4.2945,-4.2948,-4.2955,-4.2971,-4.2966,-4.298,-4.2993,-4.2982,-4.3003,-4.3005,-4.3017,-4.3019,-4.3034,-4.3019,-4.3031,-4.3033,-4.3036,-4.3039,-4.2956,-4.3036,-4.3036,-4.3036,-4.3036,-4.3036,0,-4.2994,-4.2994,-4.3009,-4.3018,-4.3031,-4.3012,-4.3018,-4.3029,-4.3047,-4.3051,-4.3063,-4.3082,-4.3096,-4.3091,-4.3103,-4.3116,-4.3107,-4.312,-4.3118,-4.3118,-4.3053,-4.3044,-4.3126,-4.3126,-4.3126,-4.3126,-4.3126,-4.3126,-4.304,-4.307,-4.3063,-4.3094,-4.3094,-4.3113,-4.3118,-4.3124,-4.3126,-4.3149,-4.316,-4.3157,-4.3156,-4.3168,-4.318,-4.3178,-4.3183,-4.3198,-4.3193,-4.3132,-4.3123,-4.3114,-4.3106,-4.32,-4.32,-4.3257,-4.3257,-4.3258]}]]